TimeCST,TemperatureF,Dew PointF,Humidity,Sea Level PressureIn,VisibilityMPH,Wind Direction,Wind SpeedMPH,Gust SpeedMPH,PrecipitationIn,Events,Conditions,WindDirDegrees,DateUTC
12:53 AM,35.1,25.0,67,30.26,10.0,South,3.5,-,N/A,,Overcast,170,2012-11-14 06:53:00
1:53 AM,34.0,25.0,70,30.26,10.0,South,3.5,-,N/A,,Overcast,190,2012-11-14 07:53:00
2:53 AM,33.1,26.1,75,30.26,10.0,South,3.5,-,N/A,,Overcast,180,2012-11-14 08:53:00
3:53 AM,34.0,26.1,73,30.26,10.0,Calm,Calm,-,N/A,,Overcast,0,2012-11-14 09:53:00
4:53 AM,32.0,26.1,79,30.26,10.0,Calm,Calm,-,N/A,,Overcast,0,2012-11-14 10:53:00
5:53 AM,33.1,26.1,75,30.26,10.0,South,3.5,-,N/A,,Overcast,180,2012-11-14 11:53:00
6:53 AM,33.1,27.0,78,30.25,10.0,South,3.5,-,N/A,,Overcast,170,2012-11-14 12:53:00
7:53 AM,34.0,27.0,75,30.25,10.0,South,3.5,-,N/A,,Overcast,180,2012-11-14 13:53:00
8:53 AM,35.1,27.0,72,30.25,10.0,SSW,4.6,-,N/A,,Overcast,210,2012-11-14 14:53:00
9:53 AM,37.0,28.0,70,30.25,10.0,SSW,9.2,-,N/A,,Clear,200,2012-11-14 15:53:00
10:53 AM,42.1,27.0,55,30.25,10.0,SW,9.2,-,N/A,,Clear,220,2012-11-14 16:53:00
11:53 AM,45.0,24.1,44,30.21,10.0,SW,9.2,-,N/A,,Clear,220,2012-11-14 17:53:00
12:53 PM,46.0,26.1,46,30.20,10.0,South,9.2,-,N/A,,Clear,190,2012-11-14 18:53:00
1:53 PM,46.9,28.0,48,30.19,10.0,SSW,10.4,-,N/A,,Clear,200,2012-11-14 19:53:00
2:53 PM,48.0,28.9,48,30.17,10.0,SSW,6.9,-,N/A,,Clear,200,2012-11-14 20:53:00
3:53 PM,46.9,28.0,48,30.17,10.0,SSW,8.1,-,N/A,,Clear,200,2012-11-14 21:53:00
4:53 PM,42.1,28.0,58,30.17,10.0,South,5.8,-,N/A,,Clear,180,2012-11-14 22:53:00
5:53 PM,37.9,26.1,62,30.16,10.0,South,6.9,-,N/A,,Clear,170,2012-11-14 23:53:00
6:53 PM,36.0,26.1,67,30.17,10.0,South,6.9,-,N/A,,Clear,180,2012-11-15 00:53:00
7:53 PM,37.9,27.0,65,30.16,10.0,South,6.9,-,N/A,,Clear,190,2012-11-15 01:53:00
8:53 PM,36.0,27.0,70,30.15,10.0,South,8.1,-,N/A,,Clear,180,2012-11-15 02:53:00
9:53 PM,35.1,27.0,72,30.15,10.0,South,6.9,-,N/A,,Clear,180,2012-11-15 03:53:00
10:53 PM,37.0,28.9,73,30.13,10.0,South,8.1,-,N/A,,Clear,190,2012-11-15 04:53:00
11:53 PM,33.1,27.0,78,30.12,10.0,South,4.6,-,N/A,,Clear,180,2012-11-15 05:53:00